This is the latest recevied weather packets stored in our database for station/object KD5FHA. If no packets are shown the sender has not sent any weather packets the latest 10 day(s).
| Time | Temp. | Humidity | Pressure | Rain* | Wind** | Luminosity | Snow |
|---|---|---|---|---|---|---|---|
| 1777680175 | 16.67° C | 64% | 1016.5 hPa | 0 mm | - | 52 W/m² | - |
| 1777679870 | 16.67° C | 63% | 1016.7 hPa | 0 mm | - | 48 W/m² | - |
| 1777679566 | 16.67° C | 62% | 1016.6 hPa | 0 mm | - | 50 W/m² | - |
| 1777679262 | 16.67° C | 63% | 1016.6 hPa | 0 mm | - | 56 W/m² | - |
| 1777678954 | 16.67° C | 62% | 1016.5 hPa | 0 mm | - | 57 W/m² | - |
| 1777678653 | 16.67° C | 62% | 1016.6 hPa | 0 mm | - | 55 W/m² | - |
| 1777678350 | 16.67° C | 62% | 1016.5 hPa | 0 mm | - | 61 W/m² | - |
| 1777678050 | 16.67° C | 62% | 1016.6 hPa | 0 mm | - | 97 W/m² | - |
| 1777677747 | 17.22° C | 62% | 1016.4 hPa | 0 mm | - | 112 W/m² | - |
| 1777677445 | 17.22° C | 63% | 1016.2 hPa | 0 mm | - | 125 W/m² | - |
| 1777677143 | 17.22° C | 63% | 1016.2 hPa | 0 mm | - | 124 W/m² | - |
| 1777676841 | 17.22° C | 62% | 1016.3 hPa | 0 mm | - | 119 W/m² | - |
| 1777676540 | 17.22° C | 63% | 1016.3 hPa | 0 mm | - | 107 W/m² | - |
| 1777676237 | 17.22° C | 62% | 1016.1 hPa | 0 mm | - | 96 W/m² | - |
| 1777675934 | 17.22° C | 61% | 1016.1 hPa | 0 mm | - | 90 W/m² | - |
| 1777675630 | 17.22° C | 61% | 1016 hPa | 0 mm | - | 87 W/m² | - |
| 1777675328 | 17.22° C | 61% | 1016.1 hPa | 0 mm | - | 121 W/m² | - |
| 1777675023 | 17.22° C | 60% | 1015.9 hPa | 0 mm | - | 147 W/m² | - |
| 1777674720 | 17.22° C | 59% | 1015.8 hPa | 0 mm | - | 135 W/m² | - |
| 1777674416 | 17.22° C | 59% | 1016 hPa | 0 mm | - | 121 W/m² | - |
| 1777674114 | 17.22° C | 60% | 1015.8 hPa | 0 mm | - | 111 W/m² | - |
| 1777673810 | 17.22° C | 58% | 1015.7 hPa | 0 mm | - | 121 W/m² | - |
| 1777673507 | 17.22° C | 58% | 1015.8 hPa | 0 mm | - | 133 W/m² | - |
| 1777673205 | 17.22° C | 58% | 1015.8 hPa | 0 mm | - | 136 W/m² | - |
| 1777672902 | 17.78° C | 58% | 1015.8 hPa | 0 mm | - | 144 W/m² | - |
* Rain latest hour (hover to see other rain measurements)
** Current wind speed in m/s (hover to see current wind gust speed)